STARLINK-11600, 63114

Orbit data source: Space-Track

STARLINK-11600, 63114 is a payload satellite owned by SpaceX/Seattle (US) in LEO that was launched on Thu, 27 Feb 2025 UTC via an FALCON 9 launch vehicle from the Air Force Eastern Test Range (AFETR). Payload-class satellites include a variety of spacecraft equipped with specific instruments for various scientific and technological missions. These include communications satellites like Starlink; space stations such as the ISS; scientific satellites like the Hubble; Earth observation satellites from companies like Planet Labs, Umbra, and HawkEye 360; GPS; miniature CubeSats for education and research; and military/defense satellites.

Loading next visibility...
Identifier
63114, 2025-039L
Orbit
LEO
Country
Flag of USUS
Related business
Manufacturer
SpaceX/Seattle
Mission
Operational Commercial Communications
Bus & Motor
STARLINK V2MD, Unknown motor
Mass
960 kg wet, ~910 kg dry
Launch date (UTC)
2025-02-27 (11 months ago)
Launch vehicle
FALCON 9
Launch site
Air Force Eastern Test Range (AFETR)
Object type
Payload
Rocket body
Debris
Shape & HBR
Box + 2 Pan, 18.1 m
Radar Cross Section
36.964 m², Large (>1 m²)

Expand to show TLE details & history
Last TLE update: 11 hours ago

TLE from 11 hours ago
0 STARLINK-11600
1 63114U 25039L   26036.55736257  .00272082  00000-0  20467-2 0  9993
2 63114  42.9996  70.3672 0002263 248.5957 111.4670 15.70938365 54561
Epoch: 2026-02-05T13:22Z
TLE epoch observation values (Epoch: 2026-02-05T13:22:36.126Z)
Latitude
0.00005°
Longitude
94.00885°
Altitude
356.543 km
Speed
7.697 km/s
True Right ascension
04h 41m 28s
True Declination
0° 00' 00"
Sunlit
Object was in full shadow at epoch
Visualization orbit readout
Latitude
Unknown
Longitude
Unknown
Altitude
Unknown
Speed
Unknown
Apparent Right ascension
Unknown
Apparent Declination
Unknown
Sunlit
N/A
Visualization observer readout
Local Sidereal Time
02:51:15
Azimuth
Unknown
Elevation
Unknown
Doppler factor
Unknown
Orbital elements
Apogee altitude
359.72 km
Perigee altitude
356.671 km
Semi-major axis
6,736.333 km
Eccentricity
0.00023
Inclination
42.9996°
RAAN
70.3672°
Arg. of periapsis
248.5957°
True anomaly
111.49113°
Mean anomaly
111.467°
Eccentric anomaly
111.47907°
Mean motion
3.92562 °/min
Orbital period
91.71 mins
BSTAR
0.0020467
Loading maneuver chart data...
Computing Atmospheric mass density...
Loading historical data...
Loading historical data...
Loading historical data...
Loading historical data...
Loading historical data...
Loading historical data...
Loading historical data...

Documentation

Showing up to 5 results
|